Wind_Speed
26 26 26 25 25 25 25 25 25 24 24 25 26 27 27 28 28 29 29 28 28 28 28 28 30 33 33 32 29 25 21 18 15 13 11 10 11 11 11 11 12 13 15 16 16 16 15 15 14 13 11 10 8 7 6 5 5 5 6 6 6 7 7 7 8 7 7 7 8
26 26 26 26 25 25 25 25 24 24 25 25 26 26 27 27 27 28 28 28 28 28 28 28 30 32 33 32 30 28 24 20 15 12 9 8 8 8 7 7 9 11 13 14 16 16 15 14 14 12 11 9 7 5 4 4 4 4 5 6 6 7 8 8 8 8 9 9 9
26 26 26 25 24 24 24 24 24 25 26 26 26 26 26 26 26 27 27 27 28 28 28 28 30 32 33 32 31 30 28 24 19 13 9 6 7 8 8 7 7 8 9 11 13 14 14 14 13 12 11 9 6 4 2 1 2 3 3 4 6 6 7 8 9 9 10 10 11
26 26 25 25 25 24 24 23 24 25 26 26 26 26 25 25 25 26 26 27 28 28 28 29 31 34 35 33 31 29 29 27 23 18 12 9 7 7 7 6 6 9 10 9 10 12 13 12 12 11 10 9 7 4 2 1 1 2 2 4 5 6 7 8 8 9 10 10 11
26 25 25 24 25 25 24 24 25 26 26 26 26 26 26 25 25 26 27 27 28 28 29 31 32 35 36 34 32 30 28 27 26 22 18 14 10 7 6 7 12 15 15 13 10 10 11 12 11 10 9 8 7 5 2 1 3 4 4 5 6 7 8 8 8 9 10 10 10
26 26 25 25 25 25 25 25 26 26 26 26 26 26 26 26 26 27 28 29 29 30 31 32 32 32 34 34 33 31 29 27 25 24 22 18 14 11 10 13 16 17 16 15 13 11 10 10 9 9 8 7 5 4 3 3 4 6 7 7 8 8 8 8 8 9 10 10 11
25 25 26 26 26 26 26 26 27 27 26 25 25 26 27 27 28 29 30 31 30 30 30 30 29 30 32 33 34 33 30 27 24 22 21 20 17 15 15 17 18 18 19 18 16 14 12 10 8 7 6 5 4 4 4 5 6 7 8 9 10 10 9 8 8 8 9 10 11
25 26 26 26 26 26 26 27 27 27 26 25 26 27 28 29 30 31 31 31 29 28 28 28 29 29 30 32 33 33 30 27 23 20 20 18 17 17 17 18 17 16 14 14 14 14 14 14 13 13 11 9 7 6 5 5 6 7 8 10 11 12 12 11 9 9 9 10 11
26 26 27 26 26 26 27 28 28 27 26 26 26 27 28 29 30 30 31 30 29 28 28 28 29 29 29 30 31 31 29 25 20 17 17 17 17 18 18 18 16 13 10 9 9 10 12 15 16 17 16 13 10 8 6 5 5 6 8 10 12 13 14 14 13 11 9 10 11
26 27 27 26 27 27 28 28 27 27 26 26 26 27 28 28 29 30 30 29 28 28 29 29 29 29 29 29 29 29 29 26 21 15 14 16 17 18 18 17 15 13 11 9 8 8 9 11 14 16 16 13 11 9 7 6 5 6 8 10 12 13 14 13 12 11 10 10 10
26 26 26 26 27 28 28 28 27 26 25 26 26 27 28 28 29 30 29 29 29 29 29 29 28 28 27 27 28 28 28 28 24 18 12 13 15 16 16 15 14 13 12 10 10 9 9 8 9 11 13 13 11 9 8 7 6 7 9 10 12 12 12 12 11 11 11 11 11
26 26 26 26 27 27 28 27 26 26 25 26 27 28 28 29 29 29 29 29 29 29 28 28 27 26 25 25 26 27 27 28 27 22 16 12 12 13 14 13 13 12 11 11 10 10 9 8 7 8 10 11 11 10 9 8 8 8 9 10 11 11 11 10 10 10 10 10 10
26 26 26 26 27 27 27 26 26 25 26 27 27 28 28 29 29 29 29 29 29 27 26 26 26 25 24 23 24 25 26 28 29 27 21 15 12 12 13 13 12 11 10 10 9 9 9 8 7 7 8 10 10 10 9 9 8 8 8 8 8 9 9 9 9 10 10 10 9
26 25 25 26 27 27 26 26 25 25 26 27 28 29 29 29 29 28 28 28 27 26 26 26 25 25 24 22 20 21 23 27 29 30 27 21 17 14 14 13 12 11 10 10 10 9 9 9 9 8 9 10 11 11 11 10 9 9 8 7 7 6 6 7 7 8 7 6 6
25 25 25 26 26 26 26 26 26 26 27 28 29 30 30 30 29 28 27 27 26 26 26 25 26 26 24 21 17 15 16 20 24 27 28 26 23 20 18 16 14 12 11 11 11 11 11 11 11 11 12 12 12 13 12 12 11 10 9 8 7 6 5 5 5 5 4 4 3
25 25 26 26 26 26 26 27 26 27 28 29 30 30 30 31 30 29 27 25 25 26 25 24 24 24 23 21 17 13 9 8 12 17 21 22 22 21 19 18 16 15 14 14 13 13 14 14 14 14 15 15 15 15 14 14 12 11 9 8 7 5 4 4 3 3 3 2 2
26 26 26 27 27 27 27 28 28 28 29 30 30 31 32 32 31 30 27 25 25 25 24 23 22 22 22 20 17 13 10 7 4 6 9 13 15 16 17 17 17 17 17 17 17 17 17 17 17 17 16 17 16 16 15 14 13 11 10 8 7 6 5 4 3 3 2 1 1
26 27 27 28 28 28 29 29 29 30 31 31 31 32 33 33 32 30 27 25 25 23 22 22 21 20 20 19 16 13 11 9 7 5 2 4 7 10 13 15 17 18 19 20 20 19 19 19 18 18 17 17 17 16 16 15 13 12 10 9 8 7 5 4 4 3 3 2 2
26 27 28 28 28 28 29 30 31 32 32 32 33 33 34 34 33 31 29 27 25 22 20 19 18 18 18 17 15 12 10 9 7 5 4 3 1 5 8 10 13 15 17 18 19 19 19 19 19 18 18 18 17 16 15 15 14 12 11 9 8 6 5 5 4 4 4 4 5
27 27 28 28 28 29 30 30 31 32 33 33 34 34 35 35 33 32 30 28 24 20 18 17 17 17 17 16 15 14 11 7 5 3 2 2 3 5 7 9 10 12 14 15 15 16 17 18 19 19 19 18 17 17 16 15 14 13 11 10 9 8 7 6 6 6 6 7 7
27 28 28 28 28 29 30 31 32 33 33 34 34 35 35 34 33 31 29 27 23 20 18 18 18 18 18 17 16 16 15 11 7 6 6 7 7 8 9 11 13 14 14 14 14 15 17 18 20 20 20 19 19 18 18 17 15 14 13 12 11 10 9 8 8 8 9 9 10
28 28 28 28 28 29 30 31 32 33 34 34 35 35 35 33 31 30 29 26 24 22 21 21 21 21 20 19 18 18 19 19 17 16 15 14 13 13 12 13 14 15 15 15 15 15 17 18 19 20 20 20 20 19 18 17 16 15 15 14 13 12 11 10 10 10 11 11 12
29 29 28 28 29 29 30 31 32 33 34 35 35 35 33 31 29 29 28 27 25 24 24 24 24 24 23 22 21 20 21 21 21 20 18 18 17 16 16 16 16 16 15 15 14 15 16 17 18 19 20 20 21 20 19 18 17 17 16 15 14 13 12 11 11 10 10 10 10
29 29 29 29 29 30 30 31 32 33 34 35 35 34 32 29 27 28 28 27 26 25 26 26 26 26 26 26 25 24 23 22 22 21 20 19 19 19 20 20 20 19 18 16 15 15 16 17 18 18 19 20 21 21 20 19 18 18 17 16 15 15 14 13 12 11 10 10 10
30 30 30 30 30 30 30 30 31 32 34 35 35 34 31 27 25 26 27 27 27 26 26 27 27 28 28 28 28 27 25 24 23 22 21 20 19 19 20 21 21 21 20 19 18 17 17 18 18 19 19 21 21 21 21 20 19 18 17 16 15 15 14 13 12 11 11 11 11
30 31 31 30 30 30 30 29 30 31 33 35 36 34 30 26 24 25 26 27 27 27 27 27 27 28 28 29 30 29 27 26 24 23 22 21 20 20 20 20 21 21 21 20 20 20 19 19 19 19 20 21 21 21 21 20 18 17 16 15 15 14 14 13 12 11 11 11 11
30 31 31 31 31 30 30 29 30 31 33 35 35 34 31 26 23 23 25 26 26 26 26 27 26 26 28 30 31 31 30 28 26 25 23 22 22 22 22 23 22 21 21 20 19 19 19 18 18 19 19 20 20 20 20 19 18 17 16 15 14 13 13 12 11 10 10 10 10
30 30 30 30 30 30 30 29 29 30 31 33 34 34 32 28 23 22 23 24 25 26 26 25 25 26 28 30 31 31 31 30 29 27 26 25 24 24 24 25 24 22 21 19 19 18 17 17 16 17 17 18 18 18 17 17 16 16 15 14 14 13 12 11 10 10 9 9 9
30 30 30 29 29 29 29 29 29 29 30 32 33 34 33 30 24 22 22 23 24 24 24 23 24 26 27 28 29 30 30 30 30 29 29 28 26 25 24 24 23 22 20 19 18 17 16 15 15 15 15 15 15 14 14 14 14 13 13 13 12 11 11 10 9 9 8 8 8
29 30 29 28 28 28 29 29 28 27 28 30 32 33 33 32 27 23 21 21 21 21 22 22 23 24 25 26 27 28 28 28 28 28 28 28 28 26 25 23 22 20 19 18 17 16 15 14 13 13 12 12 12 11 11 11 11 11 11 11 10 10 9 9 9 8 8 7 7
30 30 29 28 28 28 28 29 28 27 27 29 31 32 32 32 29 24 21 20 20 20 20 21 22 23 23 24 25 25 26 25 25 25 25 25 25 25 25 24 22 20 19 17 16 15 14 13 12 12 11 10 9 9 9 9 9 10 9 9 9 8 8 8 8 8 8 8 8
30 30 29 29 28 28 28 29 28 27 26 28 29 30 30 31 30 27 23 20 19 19 19 20 20 21 21 22 22 23 23 23 23 23 23 22 23 22 22 22 21 20 19 17 15 14 13 12 12 11 10 9 8 8 8 9 9 9 9 9 8 8 8 8 9 9 9 9 10
30 30 29 29 28 28 28 28 28 27 26 26 27 28 29 30 30 29 25 22 20 19 18 18 18 19 19 19 20 20 20 20 20 20 20 20 20 20 20 19 19 18 17 16 14 12 11 10 10 10 10 10 8 7 8 8 9 10 10 10 9 8 8 8 9 10 10 11 11
30 30 29 29 28 28 28 28 27 27 26 26 26 27 28 29 29 29 27 24 22 20 17 16 16 16 17 17 18 18 18 18 18 18 18 18 18 18 18 17 16 16 15 15 13 11 9 8 8 9 9 9 8 8 8 8 9 10 10 10 10 9 9 9 9 10 11 11 12
29 29 29 28 28 28 27 27 27 27 26 26 25 26 27 28 28 28 27 25 24 22 18 15 14 14 15 16 16 16 16 16 16 16 16 16 17 17 16 15 14 14 14 13 12 11 8 6 7 8 9 9 9 9 9 9 9 10 10 10 10 10 10 10 10 11 11 11 12
29 29 28 28 28 28 27 26 27 27 26 26 25 25 26 27 28 28 27 26 26 24 21 17 14 14 14 15 15 16 15 15 14 14 14 15 15 16 15 14 13 13 13 13 12 11 8 6 6 8 8 9 9 10 10 10 10 10 10 10 11 11 11 11 12 12 12 12 12
29 28 28 28 28 27 27 26 26 26 26 26 25 25 25 26 26 27 26 25 25 25 22 19 16 14 14 15 15 15 14 14 13 13 13 14 15 15 16 15 14 14 13 13 13 12 8 6 8 9 9 9 10 10 11 11 11 10 10 10 11 11 12 12 12 13 13 13 12
28 28 28 28 27 27 26 26 26 26 27 27 26 25 24 25 25 25 25 24 24 23 22 20 17 14 13 14 14 14 14 13 13 13 13 13 14 15 16 17 16 15 14 14 14 12 9 10 12 11 10 10 10 10 11 11 11 11 11 10 11 11 11 10 11 13 15 15 14
28 28 28 28 27 26 26 25 25 26 27 27 26 25 24 24 24 24 24 24 23 22 21 19 17 15 13 13 13 13 13 13 13 13 13 13 13 14 15 17 16 16 16 15 15 12 11 14 13 12 10 10 9 9 9 10 11 11 10 10 11 11 10 9 10 13 15 17 17
28 28 28 28 27 26 25 25 25 26 27 26 25 24 24 23 23 23 23 23 22 22 21 20 18 16 14 13 13 13 13 13 13 13 12 12 11 12 13 15 16 16 16 16 15 12 12 13 12 11 10 9 8 8 8 9 10 10 10 10 11 11 10 9 9 11 14 15 16
28 28 28 28 27 25 25 25 25 26 27 26 25 24 23 23 24 23 23 22 22 22 21 21 20 18 17 15 15 14 14 14 14 13 12 12 11 10 11 13 14 15 16 16 15 12 10 11 11 10 9 8 7 7 8 9 10 11 11 11 11 12 12 10 9 9 10 11 12
Wind_Direction
342 339 337 334 331 328 326 324 322 320 319 318 316 315 313 311 310 308 306 304 302 301 302 304 306 305 300 292 284 279 277 278 282 282 273 258 247 244 246 248 240 223 207 195 188 185 183 183 185 187 189 193 196 200 205 211 217 223 226 227 228 229 230 231 232 233 233 234 236
339 336 334 332 330 329 327 324 323 321 320 319 317 314 313 311 310 308 307 305 303 303 304 306 308 309 306 297 287 278 274 273 275 275 268 247 224 210 205 212 219 216 206 193 185 181 180 180 180 180 181 184 189 198 209 223 233 240 243 244 244 245 245 246 246 246 246 246 247
336 334 333 332 331 330 328 326 323 322 321 319 317 315 313 311 310 308 307 307 306 306 306 306 308 310 308 303 292 281 272 268 267 267 262 237 202 186 184 192 207 217 211 193 180 174 173 173 174 172 172 174 177 180 190 223 253 261 264 267 267 266 264 262 260 258 257 257 256
335 334 333 332 332 331 329 326 324 323 322 320 318 316 314 312 310 309 308 309 309 308 307 307 307 308 307 305 298 286 274 266 261 257 252 242 213 193 190 202 231 244 238 213 185 169 164 163 162 161 164 172 173 162 125 57 3 325 306 302 297 293 287 279 272 266 263 261 260
335 334 334 333 332 330 329 327 325 324 323 320 318 316 315 313 311 310 310 310 309 308 307 306 306 306 305 303 300 292 280 267 257 250 244 240 230 219 225 252 259 257 249 233 207 177 163 159 155 153 154 161 172 182 196 316 326 322 317 312 309 305 300 290 279 270 264 261 259
335 335 334 333 332 331 330 328 327 325 323 320 318 317 316 315 313 312 310 309 307 306 306 305 305 305 304 303 300 296 287 272 257 245 237 232 229 229 239 249 251 248 241 231 218 201 186 173 164 156 153 156 163 176 201 245 278 291 295 295 296 298 297 291 281 271 263 258 255
336 335 335 334 333 332 331 329 327 325 323 321 319 318 317 317 315 313 312 310 309 307 306 305 304 303 303 302 300 297 292 281 262 244 232 224 218 218 226 235 242 242 238 232 230 227 222 215 207 197 190 191 199 212 227 240 258 272 280 282 283 285 288 288 282 273 265 259 255
337 336 336 335 334 333 332 330 328 326 324 323 321 319 318 318 317 317 317 316 313 310 307 305 303 302 302 301 298 296 293 287 268 246 228 215 204 199 204 217 226 231 235 237 239 239 239 239 237 234 231 227 227 231 238 247 258 270 277 279 279 279 279 279 277 274 268 263 259
339 338 337 336 335 334 332 330 328 327 325 323 322 321 321 321 321 322 322 321 318 315 312 308 305 302 301 299 297 293 291 289 277 251 225 208 196 191 192 197 202 209 218 229 237 240 241 240 239 236 231 226 223 226 235 247 258 266 269 270 269 267 266 265 263 263 263 262 261
339 339 338 337 335 334 333 331 330 328 327 325 324 324 324 324 324 324 324 322 321 320 318 314 310 306 302 299 296 291 287 286 284 265 229 204 193 188 188 188 188 191 198 206 213 218 223 227 228 226 220 214 211 212 218 228 238 247 251 254 256 257 257 257 256 256 256 257 258
340 339 339 337 336 335 334 332 331 331 329 328 327 326 326 325 325 324 323 322 323 323 323 321 318 312 306 300 296 290 284 280 280 276 252 214 196 189 187 187 188 189 192 196 200 201 201 204 208 206 203 199 197 194 194 200 213 227 239 246 252 257 260 261 259 258 257 257 258
340 340 339 338 337 336 335 334 333 332 331 330 329 328 327 326 326 325 324 324 324 324 324 325 324 319 312 303 296 290 284 276 271 269 262 240 211 196 190 191 193 194 197 200 203 203 201 196 193 191 190 191 186 180 178 186 202 220 234 244 251 256 260 261 261 260 259 258 260
341 340 340 339 338 338 337 335 334 333 333 331 331 330 329 327 326 326 325 324 324 323 322 325 326 325 320 310 298 289 281 272 265 260 255 246 228 209 199 199 200 202 204 207 209 209 205 199 194 190 189 187 180 176 178 185 197 210 223 232 239 244 248 251 254 255 256 258 259
341 341 340 340 340 340 339 337 336 334 334 333 332 331 329 328 327 326 325 324 323 322 322 324 327 330 329 322 307 290 276 266 258 251 246 242 236 226 217 212 210 208 207 209 211 210 205 200 195 188 183 181 178 181 185 186 186 190 196 204 212 221 229 237 243 246 249 254 255
342 341 341 341 341 341 341 339 337 335 334 333 333 332 331 329 328 327 325 324 322 322 322 323 327 330 332 331 324 305 279 260 250 243 239 239 238 235 229 223 215 209 204 203 204 202 197 190 185 177 173 177 174 174 173 170 170 173 178 184 191 198 207 217 224 228 230 237 243
342 342 342 342 342 342 342 340 338 337 336 335 334 334 333 331 329 328 325 323 323 323 323 322 324 327 331 333 334 330 312 271 247 237 233 232 231 229 224 218 212 204 196 191 188 185 181 177 173 167 164 164 163 159 157 156 158 161 165 170 174 178 181 184 189 192 198 210 226
342 342 342 343 342 342 343 342 341 339 338 337 336 335 335 333 332 330 327 325 325 324 323 322 322 325 329 332 332 333 334 330 303 251 230 223 219 213 209 206 202 194 186 183 178 176 173 169 165 161 157 155 151 149 148 148 149 150 153 155 158 159 158 157 157 151 147 149 114
344 344 344 344 343 343 343 344 343 342 341 339 338 338 337 336 334 333 332 331 329 326 323 323 323 326 330 334 334 330 325 328 336 335 291 232 211 199 194 193 189 183 178 178 175 171 166 161 159 157 154 150 147 145 143 142 142 143 144 144 145 146 146 143 135 125 116 102 74
346 346 346 345 345 344 345 345 345 344 343 342 341 340 340 340 340 340 341 341 337 332 329 330 332 333 336 341 346 342 326 311 312 323 336 341 165 166 167 168 168 166 166 168 169 165 161 158 156 154 150 147 144 141 139 138 138 138 137 134 132 130 126 119 113 105 98 92 82
349 348 347 346 346 347 347 347 348 347 346 344 343 343 343 345 347 349 349 349 346 344 345 347 349 351 354 357 2 1 352 325 299 296 329 23 96 112 115 118 122 129 138 146 150 151 151 149 148 146 144 142 140 136 133 131 129 128 125 121 115 110 105 100 97 93 91 87 85
351 349 348 348 349 349 349 350 351 350 349 347 347 347 348 351 354 356 357 358 0 5 9 10 11 12 14 16 17 16 16 19 34 62 79 87 90 90 89 90 92 98 106 114 120 126 130 132 134 134 134 133 131 128 125 122 119 117 114 110 106 102 99 95 93 92 92 90 88
351 350 349 350 350 351 352 353 354 353 352 351 351 351 353 356 359 3 7 11 15 19 23 24 25 25 26 28 29 30 31 37 49 62 72 75 76 76 78 81 83 85 87 91 97 103 109 113 117 119 121 121 120 119 117 115 113 112 109 107 105 103 100 98 97 95 93 91 87
350 350 350 351 352 353 354 355 356 356 355 354 354 355 357 0 5 11 16 20 22 24 26 29 30 31 33 35 38 40 41 44 50 59 65 69 70 72 73 74 74 72 71 73 80 87 93 98 102 106 110 112 112 112 112 112 111 109 107 105 103 101 99 97 94 91 87 84 80
350 350 351 352 353 354 356 357 358 358 357 356 356 357 359 4 11 17 22 25 26 26 28 30 32 34 36 39 42 44 46 47 50 55 59 64 67 70 71 70 68 64 62 63 67 75 82 88 92 97 102 105 106 106 106 107 106 105 103 101 98 95 91 87 84 80 75 70 67
351 352 352 353 353 355 356 358 359 359 358 358 358 359 1 6 15 22 26 29 30 30 30 31 33 35 38 41 44 46 47 47 48 50 53 56 60 64 68 69 68 67 64 62 63 67 73 79 85 89 93 95 97 99 99 99 99 99 98 97 95 92 88 83 77 71 66 62 60
353 353 353 354 355 356 357 358 359 359 360 359 360 360 2 8 17 24 30 33 34 34 34 33 34 35 38 41 44 45 46 45 45 46 48 50 53 57 61 66 68 69 68 66 65 64 65 69 75 80 83 87 89 91 92 93 93 93 93 93 92 90 87 83 78 72 66 62 61
353 353 354 356 357 357 357 358 359 1 1 1 0 360 1 7 16 25 31 35 36 36 36 35 34 35 37 41 43 44 44 44 44 44 44 46 48 51 54 57 60 63 64 64 64 63 62 62 65 69 74 78 82 84 86 87 87 87 86 86 85 85 83 81 79 75 70 66 65
353 353 354 356 357 357 358 359 360 1 1 1 1 1 2 5 13 23 29 34 37 38 37 36 36 37 38 39 40 42 42 43 43 43 43 43 44 46 48 51 53 54 54 55 57 57 58 59 59 61 65 70 74 77 79 81 81 80 79 79 78 78 77 76 76 74 72 69 69
353 353 354 355 355 356 357 358 359 360 1 1 1 2 3 4 9 18 26 32 36 39 40 39 39 40 40 40 40 40 41 41 41 42 42 42 41 41 42 45 47 48 48 47 48 49 52 54 55 57 60 65 69 73 76 78 80 80 79 77 76 74 73 71 71 70 71 72 71
353 353 353 353 354 355 356 357 358 359 360 1 2 2 2 3 6 13 22 28 32 37 41 43 44 44 43 43 42 41 41 39 39 39 40 40 39 39 38 38 39 41 42 42 43 44 46 49 51 54 58 63 70 75 80 82 84 84 82 79 76 73 71 68 66 65 67 70 72
353 353 353 352 353 353 355 356 357 358 359 1 2 2 2 2 3 8 16 23 28 34 40 45 48 48 47 46 45 44 43 41 38 37 37 37 37 37 37 36 34 32 33 35 37 39 41 44 47 49 53 59 68 76 82 85 86 85 82 78 74 70 66 63 60 60 61 65 71
354 354 353 352 352 352 353 355 356 357 358 360 1 1 1 1 1 4 9 17 23 30 36 41 45 47 48 49 48 48 46 43 41 38 36 34 34 34 35 34 32 28 24 25 27 31 37 42 43 44 47 54 64 74 80 80 81 79 76 73 68 62 58 56 56 57 60 65 73
354 354 353 352 352 352 352 354 354 355 356 358 360 360 360 360 0 1 4 10 16 22 30 36 41 44 46 48 49 49 49 48 45 41 38 35 33 32 32 32 30 26 20 17 18 22 30 39 41 41 43 49 60 73 79 78 76 74 71 67 62 57 53 52 55 58 63 69 76
353 353 352 352 352 352 352 353 353 354 354 356 357 358 359 359 360 359 359 2 6 13 22 32 40 44 47 49 49 50 50 50 49 46 42 39 36 35 33 31 28 22 16 12 10 12 20 36 44 44 46 52 63 75 83 82 77 73 69 64 58 53 52 55 59 63 67 72 77
351 351 351 351 352 352 352 353 353 353 353 354 355 357 358 359 360 359 358 358 1 5 13 26 38 45 47 48 49 49 50 50 49 48 45 42 40 38 34 30 25 18 11 8 5 4 9 30 49 54 57 62 70 79 85 85 82 78 72 65 59 55 56 62 66 68 69 72 74
350 350 350 351 352 353 353 353 353 353 353 353 354 355 357 358 360 0 360 360 1 3 7 17 32 42 45 44 44 43 44 44 45 44 42 39 36 34 30 26 20 13 7 6 3 0 3 27 61 70 71 75 78 82 85 86 87 84 79 73 66 64 66 72 75 74 71 69 69
351 351 351 351 352 352 353 354 354 353 352 351 352 354 356 357 359 0 1 2 2 3 5 12 25 35 39 38 37 37 37 37 37 36 35 32 29 26 24 22 18 14 9 7 4 2 8 49 78 83 83 85 84 83 84 86 89 92 89 83 76 74 75 78 80 77 73 68 64
353 352 352 352 352 352 353 354 354 353 352 351 351 353 355 356 357 359 0 2 3 3 5 11 20 28 32 32 31 30 29 28 26 25 26 26 24 21 18 17 16 16 14 10 6 9 33 72 84 87 88 87 84 83 82 84 88 94 98 95 89 84 82 81 79 75 70 65 61
354 354 354 353 353 352 353 354 355 354 353 351 351 352 354 355 356 358 0 3 4 4 5 8 14 20 24 25 24 23 21 19 17 16 18 19 20 17 14 13 14 15 14 10 8 23 57 79 83 85 87 86 83 82 82 83 84 90 99 104 102 98 93 86 74 67 63 61 57
354 354 354 354 353 353 353 354 354 354 353 352 351 352 353 354 355 358 1 3 5 5 5 6 9 12 15 17 18 17 15 14 13 12 12 14 15 14 12 11 12 14 13 10 11 31 64 82 84 83 83 82 82 84 86 85 82 83 90 102 108 107 101 90 74 63 59 57 55
355 355 355 354 354 353 353 354 354 354 354 353 352 352 352 354 356 359 1 3 4 5 6 6 7 9 11 13 14 13 12 11 11 11 12 11 12 12 12 10 11 13 13 11 11 25 57 83 86 83 79 78 82 87 89 86 79 75 78 89 100 103 99 89 78 66 59 55 53
Height
788 786 785 784 782 781 779 777 775 774 772 770 768 766 764 762 760 758 756 754 752 750 748 746 744 743 741 740 738 736 735 735 735 732 730 728 728 728 730 732 734 734 733 731 731 731 731 732 733 734 735 736 737 738 738 739 739 740 740 740 741 741 741 742 742 742 743 743 743
787 786 785 783 782 780 778 776 774 773 771 770 768 765 764 762 760 757 755 753 751 749 747 745 743 741 740 739 737 735 734 733 733 731 729 728 727 727 729 731 733 734 733 731 730 730 730 731 731 733 734 735 736 737 738 738 739 739 740 740 740 741 741 741 741 742 742 742 743
787 785 784 782 781 779 777 775 774 772 770 768 766 765 763 761 759 756 754 752 750 749 747 745 742 740 739 738 737 735 733 731 731 730 729 727 726 727 728 730 732 733 733 731 730 729 729 730 730 731 732 733 735 736 737 737 738 739 740 740 740 741 741 741 741 741 741 742 742
786 785 783 782 780 779 777 775 773 771 770 768 765 764 762 760 758 756 754 751 750 748 746 744 741 739 738 737 736 735 733 730 729 729 728 727 726 726 727 729 730 731 732 732 730 729 728 729 729 730 730 731 733 734 735 736 738 739 740 740 740 740 740 740 740 741 741 741 741
785 784 783 781 780 778 777 775 773 771 769 767 765 763 761 759 757 755 753 751 749 746 745 743 740 738 736 735 735 734 732 730 728 727 727 726 726 725 727 729 730 732 732 732 731 729 728 728 728 729 730 730 732 733 734 735 737 738 739 740 740 740 740 740 740 740 740 740 741
785 784 782 781 780 778 776 775 773 771 769 766 765 762 760 759 757 755 752 750 747 745 743 741 739 737 735 734 733 732 731 730 727 725 725 725 725 725 727 729 731 732 733 733 731 730 728 728 728 728 729 730 731 732 733 735 737 738 739 740 740 740 740 740 740 740 740 740 740
785 784 782 780 779 777 776 774 772 770 768 765 764 761 760 758 755 753 751 748 746 743 741 739 737 736 734 733 732 730 730 729 727 725 723 722 723 724 726 729 730 731 732 731 730 729 728 727 727 728 729 730 731 732 734 735 736 737 738 739 740 740 740 740 740 740 740 740 740
785 784 782 780 779 777 775 773 771 769 767 765 763 761 759 756 754 752 749 747 744 742 740 738 736 735 733 731 730 729 728 727 726 724 722 721 721 722 724 727 729 730 730 729 729 728 727 727 727 728 729 730 731 732 733 734 735 736 737 737 738 739 739 739 739 739 740 740 740
785 783 781 780 778 776 775 773 770 769 766 764 762 760 758 755 753 751 748 746 743 741 739 737 735 733 731 730 729 728 727 726 725 724 722 721 720 720 722 724 726 727 727 727 727 727 727 727 727 728 728 729 730 731 732 733 734 735 736 737 738 739 739 739 739 739 739 740 740
785 783 781 780 778 776 774 772 770 768 766 764 761 759 757 755 752 750 748 745 742 740 738 735 734 732 730 728 727 726 726 725 725 724 723 721 720 720 721 722 723 724 725 725 726 726 726 727 727 727 727 728 729 730 730 732 733 735 736 738 739 740 740 740 739 739 739 739 739
785 784 782 780 778 776 774 771 769 767 765 763 760 758 756 754 751 749 747 744 742 739 737 735 732 730 729 727 725 725 724 724 724 724 724 722 721 720 720 721 721 722 723 724 725 725 725 725 726 726 726 726 727 728 729 731 733 735 737 738 739 739 739 739 738 738 738 738 738
785 784 782 780 778 776 774 771 769 767 765 762 760 758 755 753 750 748 746 743 741 739 736 734 732 730 727 725 724 723 722 723 723 724 724 723 721 720 720 720 720 721 722 723 723 723 724 724 725 725 725 725 726 727 729 730 732 734 736 737 737 738 738 738 737 737 736 736 736
786 784 782 780 778 775 773 771 769 767 765 762 760 757 755 752 750 747 745 742 740 738 735 733 731 729 727 725 723 721 720 721 722 723 723 723 721 720 719 719 720 720 721 722 722 722 723 723 724 724 724 725 725 727 728 730 731 733 735 736 736 737 737 737 736 736 736 736 736
786 784 782 780 778 776 774 771 769 766 764 762 759 756 754 751 749 746 744 742 740 737 735 733 731 729 726 724 722 720 719 719 720 720 721 721 720 720 719 719 719 720 720 721 721 722 722 723 723 723 724 725 725 726 727 729 730 732 734 735 735 736 736 736 736 735 735 735 735
786 784 782 780 778 776 774 771 769 766 764 761 759 756 754 751 748 746 744 741 739 737 735 732 730 728 726 724 722 720 718 718 718 718 719 719 719 719 718 718 719 719 719 720 721 721 722 722 723 723 724 724 725 726 727 728 730 731 733 734 735 735 735 735 735 735 735 735 735
786 784 782 780 778 776 774 771 769 766 764 761 759 756 753 750 748 745 743 741 738 736 734 732 730 728 726 725 723 720 719 718 717 717 717 717 717 717 717 717 718 718 718 719 720 721 721 722 722 722 723 724 725 725 726 727 729 730 731 733 734 734 735 735 735 735 735 734 734
786 784 782 780 778 776 774 772 769 767 764 761 759 756 753 750 747 745 742 740 738 735 734 732 730 728 727 725 723 721 720 719 718 718 717 717 717 717 716 716 717 717 717 718 719 720 720 721 721 721 722 723 724 725 725 726 728 729 730 731 733 734 734 735 735 734 734 734 734
786 784 782 780 778 776 774 772 769 767 764 761 758 755 753 750 747 744 742 740 737 735 733 731 730 729 727 725 724 722 721 720 719 718 718 718 718 717 717 717 717 717 717 717 718 719 719 720 720 720 721 722 723 724 725 725 726 728 729 731 732 733 733 734 734 734 734 734 734
786 784 782 780 778 776 774 772 769 767 764 761 758 755 752 750 747 744 741 738 737 735 733 732 730 729 727 726 724 723 722 721 720 719 719 718 718 718 718 718 718 717 717 717 718 718 718 718 719 720 720 721 722 723 723 724 725 727 729 730 731 732 732 733 733 733 733 733 733
786 785 783 780 778 776 774 772 770 767 764 761 758 755 752 749 746 744 741 738 736 735 734 732 731 729 728 726 724 723 722 721 721 720 720 719 719 719 719 719 719 718 718 719 719 719 718 718 718 719 719 720 721 721 722 724 725 726 728 729 730 731 732 732 732 733 733 733 733
787 785 783 781 779 777 775 772 770 767 765 761 759 756 753 750 747 744 741 739 738 736 735 733 731 730 728 726 725 724 723 722 721 720 720 720 720 720 720 720 720 720 720 720 720 720 720 719 718 718 719 720 720 721 722 724 725 726 728 729 730 731 732 732 732 733 733 733 733
787 785 784 781 780 777 775 773 770 768 765 762 759 756 753 750 748 745 743 740 739 738 736 734 732 731 729 728 726 725 724 723 721 721 720 721 721 722 722 722 721 721 721 722 722 722 721 720 720 719 719 720 720 721 722 724 725 727 728 729 730 731 732 732 733 733 734 734 734
788 786 784 782 780 778 775 773 770 768 765 763 760 757 754 752 750 747 745 742 741 739 738 736 734 732 731 729 728 727 725 724 723 723 723 723 723 724 724 724 724 724 724 724 724 723 723 722 721 721 721 720 721 721 723 725 726 727 729 730 731 732 732 733 734 734 735 735 735
789 787 785 782 780 778 776 773 771 769 766 763 761 758 756 754 751 749 747 745 743 741 740 738 736 735 733 731 730 729 728 727 726 726 726 726 726 726 726 726 726 726 726 727 726 725 725 724 724 723 723 722 722 722 724 725 727 728 729 730 732 733 733 734 734 735 735 735 735
789 787 785 783 780 778 776 774 771 769 767 765 762 759 757 755 753 751 749 746 745 743 741 740 738 737 735 733 732 731 730 730 729 729 729 729 729 728 728 728 728 729 729 729 729 729 728 727 726 726 725 724 724 724 725 727 728 729 730 732 733 733 734 735 735 735 735 735 735
790 787 785 783 781 779 777 775 773 770 768 765 763 760 758 757 755 753 750 749 747 745 744 742 740 739 737 736 734 733 732 732 732 732 732 731 731 731 730 730 730 731 731 732 732 731 731 730 730 729 727 726 726 726 727 729 730 731 732 733 734 734 735 735 735 735 736 736 736
790 788 786 784 782 780 778 775 774 771 769 767 764 762 760 758 756 754 752 750 749 747 745 744 743 742 740 738 737 736 735 735 734 734 734 734 734 733 733 732 732 733 734 734 734 734 733 733 732 731 730 729 729 729 730 730 731 732 733 734 734 735 735 735 736 736 736 736 736
791 789 787 785 782 780 778 776 774 772 770 768 766 763 761 760 758 756 754 752 750 749 747 746 745 744 742 741 740 739 738 737 737 736 736 736 736 735 735 735 735 735 735 735 735 735 735 735 734 733 732 732 731 731 732 732 733 734 734 735 735 735 735 736 736 736 736 736 736
791 790 787 785 783 781 779 777 775 774 772 770 767 765 763 760 759 758 756 754 752 750 749 748 747 746 745 744 743 742 741 740 740 739 739 738 738 738 737 737 737 738 737 737 737 736 736 736 735 735 734 734 734 734 734 734 734 735 735 735 735 735 736 736 736 736 736 736 736
792 790 788 786 784 782 780 778 776 775 773 771 769 766 764 762 760 759 758 756 754 753 752 750 749 748 747 746 745 744 743 743 742 742 741 740 740 740 740 739 740 740 740 739 739 738 738 737 737 736 736 736 736 736 736 736 735 735 736 736 736 736 736 737 737 736 736 736 736
793 791 789 787 785 783 781 779 777 776 774 772 770 767 765 763 762 760 759 758 756 755 754 752 751 750 749 748 747 746 745 745 744 744 743 743 743 742 741 741 741 741 741 740 740 740 739 739 738 738 738 737 737 737 737 737 737 736 736 737 737 737 737 737 737 737 737 737 736
794 791 790 788 786 784 782 780 778 777 775 773 771 769 767 765 763 762 761 760 758 757 755 754 752 751 750 750 749 748 747 746 746 746 745 745 744 744 743 743 742 742 742 742 741 741 740 740 740 740 739 739 739 738 738 738 738 737 738 738 738 738 739 739 739 738 738 738 737
794 792 790 788 786 785 783 781 779 777 776 774 772 770 768 766 765 763 762 761 760 758 757 755 754 753 752 751 750 750 749 748 748 747 747 746 746 745 745 744 744 744 743 743 742 742 741 741 741 740 740 740 740 739 739 739 738 738 739 739 739 740 740 740 740 739 739 739 738
795 793 791 789 787 785 783 781 780 778 776 775 773 771 770 768 766 765 763 762 761 760 758 757 756 755 754 753 752 751 751 750 750 749 749 748 748 747 747 746 745 745 745 744 744 743 743 742 742 741 741 740 740 740 740 740 740 740 740 740 740 740 740 740 740 740 740 740 739
795 793 791 790 788 786 784 782 780 779 777 775 774 772 770 769 767 766 765 763 762 760 760 758 757 756 756 755 754 753 752 752 751 751 750 750 750 749 749 748 747 747 746 745 745 744 743 742 742 742 741 741 741 741 740 740 740 740 741 741 741 741 741 741 741 741 741 740 740
796 794 792 790 788 786 785 783 781 779 777 776 775 773 771 770 768 767 766 764 763 761 760 760 759 758 757 756 755 755 754 753 753 752 752 751 751 750 750 750 749 748 747 746 745 744 743 742 742 742 742 742 742 741 741 741 741 742 742 742 742 742 742 742 742 742 741 741 740
797 795 793 791 789 787 785 784 782 780 778 776 775 774 773 771 770 768 767 765 764 762 761 760 760 759 758 757 757 756 755 755 754 754 753 752 752 751 751 750 750 749 748 747 746 745 743 742 742 742 742 742 742 742 742 742 742 743 743 743 743 743 743 743 743 742 742 742 741
797 796 794 792 790 788 786 785 783 781 779 777 776 775 774 772 771 769 768 767 765 764 763 762 761 760 760 759 758 757 756 756 755 755 754 753 752 752 751 751 750 749 748 747 746 745 743 742 742 742 743 743 743 743 743 743 743 743 744 744 744 744 744 744 743 742 742 742 742
798 796 795 793 791 789 787 785 784 782 780 779 777 775 774 773 772 770 769 768 767 765 765 763 762 761 760 760 759 758 757 757 756 755 755 754 753 753 752 751 750 750 749 748 746 745 744 743 743 743 744 744 744 744 744 744 744 744 744 744 744 744 744 744 743 742 742 742 742
799 797 795 794 792 790 788 786 785 783 781 780 778 776 775 774 772 771 770 769 768 766 765 764 763 762 761 760 760 759 758 758 757 756 755 755 754 754 753 752 751 750 749 749 747 746 745 745 745 745 745 745 745 745 745 745 745 745 745 745 745 745 744 744 743 743 742 742 742
800 798 796 794 792 791 789 787 786 784 782 781 779 777 776 775 773 772 771 770 768 767 766 765 764 763 762 761 760 760 759 758 758 757 756 755 755 754 754 753 752 751 750 750 749 748 747 746 746 746 746 746 746 746 746 745 745 745 745 745 745 745 745 744 744 744 743 743 743